Home   Weather   Melk   Past weeks

Flag for Austria Past Weather in Melk, Lower Austria, Austria — Yesterday and Last 2 Weeks

Now
39 °F

Chilly.


Feels Like: 39 °F
Forecast: 30 / 41 °F
Wind: 1 mph from Northwest

Location: Amstetten

Current Time: Dec 10, 2016 at 6:00:01 am

Latest Report: Dec 10, 2016 at 4:00 am


Visibility: N/A

Pressure: 30.41 "Hg

Humidity: 81%

Dew Point: 34 °F

Location of MelkLocation

Past Weather in Melk — Graph

°F

Melk Temperature Yesterday

Maximum temperature yesterday: 42 °F (at 3:00 pm)
Minimum temperature yesterday: 27 °F (at 7:00 am)
Average temperature yesterday: 33 °F

High & Low Weather Summary for the Past Weeks

 TemperatureHumidityPressure
High46 °F (Nov 27, 3:00 pm)100% (Nov 25, 5:00 am)30.70 "Hg (Nov 25, 5:00 am)
Low20 °F (Nov 30, 8:00 am)49% (Nov 28, 11:00 am)29.97 "Hg (Dec 2, 8:00 am)
Average34 °F88%30.36 "Hg
* Reported Nov 25 4:00 am — Dec 10 4:00 am, Melk, Weather by CustomWeather, © 2016

Note: Actual official high and low records may vary slightly from our data, if they occured in-between our weather recording intervals... More about our weather records

Advertising

Melk Weather History for the Previous 24 Hours

Scroll right to see more
 ConditionsComfort  
Time TempWeatherWind HumidityBarometerVisibility
4:00 am
Sat, Dec 10
39 °FChilly.1 mph81%30.41 "HgN/A
3:00 am40 °FChilly.1 mph81%30.43 "HgN/A
2:00 am39 °FChilly.2 mph82%30.43 "HgN/A
1:00 am37 °FChilly.1 mph86%30.46 "HgN/A
12:00 am36 °FChilly.2 mph85%30.48 "HgN/A
11:00 pm
Fri, Dec 9
38 °FChilly.1 mph82%30.49 "HgN/A
10:00 pm38 °FChilly.2 mph82%30.50 "HgN/A
9:00 pm40 °FQuite cool.2 mph77%30.50 "HgN/A
8:00 pm40 °FChilly.2 mph76%30.50 "HgN/A
7:00 pm41 °FQuite cool.3 mph69%30.51 "HgN/A
6:00 pm41 °FQuite cool.3 mph70%30.50 "HgN/A
4:00 pm42 °FQuite cool.1 mph67%30.47 "HgN/A
3:00 pm42 °FQuite cool.2 mph71%30.47 "HgN/A
1:00 pm37 °FChilly.2 mph79%30.51 "HgN/A
12:00 pm37 °FChilly.2 mph77%30.51 "HgN/A
11:00 am35 °FChilly.2 mph86%30.53 "HgN/A
10:00 am30 °FChilly.2 mph95%30.55 "HgN/A
9:00 am27 °FChilly.3 mph100%30.53 "HgN/A
8:00 am27 °FChilly.2 mph100%30.53 "HgN/A
7:00 am27 °FIce fog.2 mph100%30.53 "HgN/A
6:00 am27 °FChilly.2 mph100%30.53 "HgN/A
Weather by CustomWeather, © 2016

See weather overviewHow to use our weather pages